{"data":{"norad_id":57237,"epoch":"2026-09-20T13:59:30.833664Z","epoch_age_seconds":117020,"freshness":"FRESH","line1":"1 57237U 23094V   26263.58299576 -.00003337  00000+0 -11178-3 0  9990","line2":"2 57237  43.0043   9.9069 0001839 261.7206  98.3437 15.27576306176929","mean_motion":15.27576306,"eccentricity":0.0001839,"inclination_deg":43.0043,"raan_deg":9.9069,"arg_perigee_deg":261.7206,"mean_anomaly_deg":98.3437,"bstar":-0.00011178,"rev_number":17692,"period_min":94.266976670428,"perigee_km":481.79838306964,"apogee_km":484.32193138407,"semimajor_km":6861.1971572269,"source":"CELESTRAK","updated_at":"2026-09-21T09:00:33.588210Z"}}